timestamp,wind_dir_avg,wind_spd_avg,wind_spd_max_dir,wind_spd_gust,battery_voltage,lat,long
2024-03-05 00:04:00+00:00,284.0,2.74,283.0,3.32,12.25,47.59359,-54.27349
2024-03-05 00:14:00+00:00,288.0,3.05,285.0,3.36,12.17,47.59359,-54.27349
2024-03-05 00:24:00+00:00,298.0,3.8,300.0,4.07,12.17,47.59359,-54.27349
2024-03-05 00:34:00+00:00,299.0,3.68,305.0,3.96,12.17,47.59359,-54.27349
2024-03-05 00:44:00+00:00,307.0,3.96,306.0,4.33,12.17,47.59359,-54.27349
2024-03-05 00:54:00+00:00,288.0,4.63,290.0,4.66,12.17,47.59359,-54.27349
2024-03-05 01:04:00+00:00,299.0,4.01,300.0,4.25,12.17,47.59359,-54.27349
2024-03-05 01:14:00+00:00,296.0,3.22,302.0,3.53,12.17,47.59359,-54.27349
2024-03-05 01:24:00+00:00,286.0,3.74,287.0,3.81,12.17,47.59359,-54.27349
2024-03-05 01:34:00+00:00,301.0,4.47,301.0,4.63,12.17,47.59359,-54.27349
2024-03-05 01:44:00+00:00,303.0,4.02,302.0,4.38,12.17,47.59359,-54.27349
2024-03-05 01:54:00+00:00,297.0,4.24,296.0,4.38,12.17,47.59359,-54.27349
2024-03-05 02:04:00+00:00,300.0,4.6,301.0,4.98,12.17,47.59359,-54.27349
2024-03-05 02:14:00+00:00,297.0,4.57,297.0,5.04,12.17,47.59359,-54.27349
2024-03-05 02:24:00+00:00,305.0,4.39,309.0,4.72,12.17,47.59359,-54.27349
2024-03-05 02:34:00+00:00,290.0,5.03,287.0,5.54,12.17,47.59359,-54.27349
2024-03-05 02:44:00+00:00,305.0,5.7,299.0,6.79,12.17,47.59359,-54.27349
2024-03-05 02:54:00+00:00,309.0,5.91,309.0,6.47,12.17,47.59359,-54.27349
2024-03-05 03:04:00+00:00,319.0,6.09,320.0,6.81,12.17,47.59359,-54.27349
2024-03-05 03:14:00+00:00,311.0,6.27,314.0,6.79,12.09,47.59359,-54.27349
2024-03-05 03:24:00+00:00,316.0,6.92,317.0,7.76,12.09,47.59359,-54.27349
2024-03-05 03:34:00+00:00,322.0,6.84,324.0,7.65,12.09,47.59359,-54.27349
2024-03-05 03:44:00+00:00,324.0,6.58,322.0,7.39,12.09,47.59359,-54.27349
2024-03-05 03:54:00+00:00,324.0,7.06,329.0,7.79,12.09,47.59359,-54.27349
2024-03-05 04:04:00+00:00,324.0,6.75,327.0,7.7,12.09,47.59359,-54.27349
2024-03-05 04:14:00+00:00,327.0,7.49,325.0,8.57,12.09,47.59359,-54.27349
2024-03-05 04:24:00+00:00,331.0,7.75,319.0,9.07,12.09,47.59359,-54.27349
2024-03-05 04:34:00+00:00,328.0,9.0,326.0,10.47,12.09,47.59359,-54.27349
2024-03-05 04:44:00+00:00,326.0,7.73,332.0,9.39,12.09,47.59359,-54.27349
2024-03-05 04:54:00+00:00,327.0,7.6,318.0,9.15,12.09,47.59359,-54.27349
2024-03-05 05:04:00+00:00,328.0,9.44,323.0,10.55,12.09,47.59359,-54.27349
2024-03-05 05:14:00+00:00,328.0,7.66,333.0,8.27,12.09,47.59359,-54.27349
2024-03-05 05:24:00+00:00,323.0,8.6,329.0,12.31,12.09,47.59359,-54.27349
2024-03-05 05:34:00+00:00,321.0,9.18,326.0,10.45,12.09,47.59359,-54.27349
2024-03-05 05:44:00+00:00,319.0,7.82,313.0,8.91,12.09,47.59359,-54.27349
2024-03-05 05:54:00+00:00,319.0,7.1,322.0,8.04,12.09,47.59359,-54.27349
2024-03-05 06:04:00+00:00,305.0,6.48,304.0,7.13,12.09,47.59359,-54.27349
2024-03-05 06:14:01+00:00,295.0,6.59,294.0,7.22,12.01,47.59359,-54.27349
2024-03-05 06:24:01+00:00,285.0,5.59,289.0,6.37,12.01,47.59359,-54.27349
2024-03-05 06:34:01+00:00,298.0,6.57,298.0,7.21,12.01,47.59359,-54.27349
2024-03-05 06:44:01+00:00,314.0,4.93,308.0,6.06,12.01,47.59359,-54.27349
2024-03-05 06:54:01+00:00,309.0,5.03,303.0,6.23,12.01,47.59359,-54.27349
2024-03-05 07:04:01+00:00,315.0,3.75,300.0,5.8,12.01,47.59359,-54.27349
2024-03-05 07:14:01+00:00,7.0,2.94,5.0,3.79,12.01,47.59359,-54.27349
2024-03-05 07:24:01+00:00,356.0,3.1,2.0,4.0,12.01,47.59359,-54.27349
2024-03-05 07:34:01+00:00,278.0,5.5,278.0,6.01,12.01,47.59359,-54.27349
2024-03-05 07:44:01+00:00,277.0,6.09,273.0,6.78,12.01,47.59359,-54.27349
2024-03-05 07:54:01+00:00,293.0,4.98,291.0,5.97,12.01,47.59359,-54.27349
2024-03-05 08:04:01+00:00,268.0,5.87,268.0,6.72,12.01,47.59359,-54.27349
2024-03-05 08:14:01+00:00,268.0,5.59,266.0,5.92,12.01,47.59359,-54.27349
2024-03-05 08:24:01+00:00,274.0,6.05,273.0,6.85,12.01,47.59359,-54.27349
2024-03-05 08:34:01+00:00,281.0,5.93,283.0,6.43,12.01,47.59359,-54.27349
2024-03-05 08:44:01+00:00,277.0,5.79,281.0,6.28,12.01,47.59359,-54.27349
2024-03-05 08:54:01+00:00,289.0,6.15,292.0,6.74,12.01,47.59359,-54.27349
2024-03-05 09:04:01+00:00,276.0,6.07,278.0,6.62,12.01,47.59359,-54.27349
2024-03-05 10:14:00+00:00,236.0,5.45,241.0,7.35,11.86,47.59359,-54.27349
2024-03-05 10:24:00+00:00,249.0,5.93,250.0,6.98,11.86,47.59359,-54.27349
2024-03-05 10:34:00+00:00,233.0,5.21,244.0,7.15,11.86,47.59359,-54.27349
2024-03-05 10:44:00+00:00,239.0,4.58,233.0,5.27,11.86,47.59359,-54.27349
2024-03-05 10:54:00+00:00,249.0,5.31,254.0,6.99,11.86,47.59359,-54.27349
2024-03-05 11:04:00+00:00,246.0,6.0,249.0,7.14,11.86,47.59359,-54.27349
2024-03-05 11:14:00+00:00,244.0,4.62,244.0,4.97,13.84,47.59359,-54.27349
2024-03-05 11:24:00+00:00,240.0,4.57,242.0,6.16,13.84,47.59359,-54.27349
2024-03-05 11:34:00+00:00,236.0,4.56,230.0,5.34,13.84,47.59359,-54.27349
2024-03-05 11:44:00+00:00,243.0,5.62,248.0,7.04,13.84,47.59359,-54.27349
2024-03-05 11:54:00+00:00,241.0,4.71,236.0,5.23,13.84,47.59359,-54.27349
2024-03-05 12:04:00+00:00,237.0,5.06,234.0,5.72,13.84,47.59359,-54.27349
2024-03-05 12:14:01+00:00,239.0,4.69,243.0,5.84,14.48,47.59359,-54.27349
2024-03-05 12:24:01+00:00,234.0,4.55,239.0,5.6,14.48,47.59359,-54.27349
2024-03-05 12:34:01+00:00,224.0,5.67,223.0,6.68,14.48,47.59359,-54.27349
2024-03-05 12:44:01+00:00,225.0,5.91,228.0,6.84,14.48,47.59359,-54.27349
2024-03-05 12:54:01+00:00,231.0,7.89,236.0,9.24,14.48,47.59359,-54.27349
2024-03-05 13:04:01+00:00,228.0,7.25,235.0,8.85,14.48,47.59359,-54.27349
2024-03-05 13:14:01+00:00,225.0,6.45,228.0,7.56,14.32,47.59359,-54.27349
2024-03-05 13:24:01+00:00,229.0,6.64,233.0,8.4,14.32,47.59359,-54.27349
2024-03-05 13:34:01+00:00,226.0,5.64,234.0,6.31,14.32,47.59359,-54.27349
2024-03-05 13:44:01+00:00,236.0,7.06,235.0,7.62,14.32,47.59359,-54.27349
2024-03-05 13:54:01+00:00,227.0,6.58,229.0,7.54,14.32,47.59359,-54.27349
2024-03-05 14:04:01+00:00,222.0,6.23,217.0,7.17,14.32,47.59359,-54.27349
2024-03-05 14:14:00+00:00,224.0,6.17,222.0,7.02,13.68,47.59359,-54.27349
2024-03-05 14:24:00+00:00,224.0,5.9,224.0,6.45,13.68,47.59359,-54.27349
2024-03-05 14:34:00+00:00,224.0,6.64,218.0,7.66,13.68,47.59359,-54.27349
2024-03-05 14:44:00+00:00,222.0,6.13,217.0,7.17,13.68,47.59359,-54.27349
2024-03-05 14:54:00+00:00,207.0,6.1,203.0,6.87,13.68,47.59359,-54.27349
2024-03-05 15:04:00+00:00,219.0,6.22,219.0,6.88,13.68,47.59359,-54.27349
2024-03-05 15:14:00+00:00,218.0,6.11,217.0,6.92,14.56,47.59359,-54.27349
2024-03-05 15:24:00+00:00,215.0,9.16,213.0,10.07,14.56,47.59359,-54.27349
2024-03-05 15:34:00+00:00,210.0,9.15,210.0,10.27,14.56,47.59359,-54.27349
2024-03-05 15:44:00+00:00,210.0,8.89,212.0,10.68,14.56,47.59359,-54.27349
2024-03-05 15:54:00+00:00,207.0,9.46,208.0,10.39,14.56,47.59359,-54.27349
2024-03-05 16:04:00+00:00,201.0,10.06,204.0,11.29,14.56,47.59359,-54.27349
2024-03-05 16:14:00+00:00,205.0,10.79,210.0,11.51,13.53,47.59359,-54.27349
2024-03-05 16:24:00+00:00,208.0,9.96,206.0,11.48,13.53,47.59359,-54.27349
2024-03-05 16:34:00+00:00,210.0,10.12,216.0,11.17,13.53,47.59359,-54.27349
2024-03-05 16:44:00+00:00,211.0,10.36,211.0,11.6,13.53,47.59359,-54.27349
2024-03-05 16:54:00+00:00,217.0,9.57,224.0,11.74,13.53,47.59359,-54.27349
2024-03-05 17:04:00+00:00,215.0,9.58,225.0,12.41,13.53,47.59359,-54.27349
2024-03-05 17:14:00+00:00,215.0,8.44,225.0,11.93,14.24,47.59359,-54.27349
2024-03-05 17:24:00+00:00,226.0,11.12,220.0,12.63,14.24,47.59359,-54.27349
2024-03-05 17:34:00+00:00,225.0,10.99,223.0,12.15,14.24,47.59359,-54.27349
2024-03-05 17:44:00+00:00,229.0,11.36,227.0,12.77,14.24,47.59359,-54.27349
2024-03-05 17:54:00+00:00,228.0,11.51,217.0,14.44,14.24,47.59359,-54.27349
2024-03-05 18:04:00+00:00,228.0,11.92,226.0,12.69,14.24,47.59359,-54.27349
2024-03-05 18:14:00+00:00,230.0,11.83,229.0,12.83,14.48,47.59359,-54.27349
2024-03-05 18:24:00+00:00,233.0,9.87,237.0,11.55,14.48,47.59359,-54.27349
2024-03-05 18:34:00+00:00,246.0,9.25,253.0,11.2,14.48,47.59359,-54.27349
2024-03-05 18:44:00+00:00,245.0,8.94,244.0,9.92,14.48,47.59359,-54.27349
2024-03-05 18:54:00+00:00,249.0,9.2,253.0,11.67,14.48,47.59359,-54.27349
2024-03-05 19:04:00+00:00,255.0,8.73,259.0,11.44,14.48,47.59359,-54.27349
2024-03-05 19:14:00+00:00,256.0,8.82,258.0,10.87,14.16,47.59359,-54.27349
2024-03-05 19:24:00+00:00,244.0,9.34,241.0,10.38,14.16,47.59359,-54.27349
2024-03-05 19:34:00+00:00,246.0,9.8,252.0,11.41,14.16,47.59359,-54.27349
2024-03-05 19:44:00+00:00,249.0,9.57,254.0,11.21,14.16,47.59359,-54.27349
2024-03-05 19:54:00+00:00,249.0,8.83,250.0,11.18,14.16,47.59359,-54.27349
2024-03-05 20:04:00+00:00,252.0,9.06,256.0,11.24,14.16,47.59359,-54.27349
2024-03-05 20:14:00+00:00,245.0,8.89,248.0,9.98,13.6,47.59359,-54.27349
2024-03-05 20:24:00+00:00,252.0,10.41,255.0,11.23,13.6,47.59359,-54.27349
2024-03-05 20:34:00+00:00,249.0,8.97,250.0,10.04,13.6,47.59359,-54.27349
2024-03-05 20:44:00+00:00,245.0,9.58,247.0,11.36,13.6,47.59359,-54.27349
2024-03-05 20:54:00+00:00,253.0,10.36,252.0,11.34,13.6,47.59359,-54.27349
2024-03-05 21:04:00+00:00,251.0,9.18,256.0,11.23,13.6,47.59359,-54.27349
2024-03-05 21:14:01+00:00,259.0,8.9,262.0,10.98,13.21,47.59359,-54.27349
2024-03-05 21:24:01+00:00,260.0,10.04,261.0,10.64,13.21,47.59359,-54.27349
2024-03-05 21:34:01+00:00,256.0,10.44,255.0,11.16,13.21,47.59359,-54.27349
2024-03-05 21:44:01+00:00,248.0,7.58,257.0,10.31,13.21,47.59359,-54.27349
2024-03-05 21:54:01+00:00,252.0,12.01,254.0,14.74,13.21,47.59359,-54.27349
2024-03-05 22:04:01+00:00,242.0,8.01,251.0,10.41,13.21,47.59359,-54.27349
2024-03-05 22:14:00+00:00,242.0,8.59,248.0,11.21,12.49,47.59359,-54.27349
2024-03-05 22:24:00+00:00,241.0,8.56,248.0,11.97,12.49,47.59359,-54.27349
2024-03-05 22:34:00+00:00,237.0,9.82,244.0,11.56,12.49,47.59359,-54.27349
2024-03-05 22:44:00+00:00,241.0,9.4,244.0,11.29,12.49,47.59359,-54.27349
2024-03-05 22:54:00+00:00,240.0,10.98,244.0,13.19,12.49,47.59359,-54.27349
2024-03-05 23:04:00+00:00,242.0,9.42,248.0,11.32,12.49,47.59359,-54.27349
2024-03-05 23:14:00+00:00,248.0,9.94,251.0,11.25,12.25,47.59359,-54.27349
2024-03-05 23:24:00+00:00,243.0,10.48,240.0,11.72,12.25,47.59359,-54.27349
2024-03-05 23:34:00+00:00,239.0,9.24,241.0,10.41,12.25,47.59359,-54.27349
2024-03-05 23:44:00+00:00,243.0,9.28,249.0,11.43,12.25,47.59359,-54.27349
2024-03-05 23:54:00+00:00,242.0,9.41,249.0,11.7,12.25,47.59359,-54.27349
